Elko, NV

6:50 AM PST on February 06, 2016 (GMT -0800)
Elko Regional

Weather History for KEKO - August, 2014

Change the Weather History Date:

Wednesday, August 13, 2014

  Actual Average Record
Temperature  
Mean Temperature 71 °F 69 °F  
Max Temperature 83 °F 90 °F 101 °F (1929)
Min Temperature 58 °F 49 °F 33 °F (1911)
Degree Days  
Heating Degree Days 0 1  
Month to date heating degree days 1 5  
Since 1 June heating degree days 93 155  
Since 1 July heating degree days 1 24  
Cooling Degree Days 6 5  
Month to date cooling degree days 70 72  
Year to date cooling degree days 446 303  
Since 1 June cooling degree days 443 299  
Growing Degree Days 22 (Base 50)    
Moisture  
Dew Point 57 °F    
Average Humidity 66    
Maximum Humidity 90    
Minimum Humidity 42    
Precipitation  
Precipitation 0.27 in 0.01 in 0.33 in (1953)
Month to date precipitation 1.14 0.16  
Year to date precipitation 7.54 6.07  
Snow  
Snow 0.00 in 0.00 in 0.00 in (1888)
Month to date snowfall 0.0 0.0  
Since 1 June snowfall 0.0 0.0  
Since 1 July snowfall 0.0 0.0  
Snow Depth 0.00 in    
Sea Level Pressure  
Sea Level Pressure 29.97 in    
Wind  
Wind Speed 7 mph (ENE)    
Max Wind Speed 28 mph    
Max Gust Speed 38 mph    
Visibility 9 miles    
Events Rain , Thunderstorm    
T = Trace of Precipitation, MM = Missing Value Source: NWS Daily Summary

Daily Weather History Graph

Daily Weather History Graph

Search for Another Location

Airport or City:

Trip Planner

Search our weather history database for the weather conditions in past years. The results will help you decide how hot, cold, wet, or windy it might be!

Date:

Astronomy

Aug. 13, 2014 Rise Set
Actual Time 5:51 AM PDT 7:43 PM PDT
Civil Twilight 5:21 AM PDT 8:13 PM PDT
Nautical Twilight 4:45 AM PDT 8:49 PM PDT
Astronomical Twilight 4:06 AM PDT 9:28 PM PDT
Moon 9:29 PM PDT (8/13) 9:26 AM PDT (8/13)
Length of Visible Light 14h 51m
Length of Day
13h 52m
Waning Gibbous, 87% of the Moon is Illuminated
Aug 13
Waning Gibbous
Aug 17
Last Quarter
Aug 25
New
Sep 2
First Quarter
Sep 8
Full

Hourly Weather History & Observations

Time (PDT) Temp. Heat Index Dew Point Humidity Pressure Visibility Wind Dir Wind Speed Gust Speed Precip Events Conditions
12:56 AM 66.0 °F - 54.0 °F 65% 29.94 in 10.0 mi West 3.5 mph - N/A   Overcast
1:56 AM 63.0 °F - 54.0 °F 72% 29.95 in 10.0 mi East 4.6 mph - N/A   Partly Cloudy
2:56 AM 62.1 °F - 54.0 °F 75% 30.01 in 10.0 mi East 4.6 mph - N/A   Partly Cloudy
3:56 AM 61.0 °F - 54.0 °F 78% 29.97 in 10.0 mi East 3.5 mph - N/A   Partly Cloudy
4:56 AM 62.1 °F - 54.0 °F 75% 29.97 in 10.0 mi East 8.1 mph - N/A   Overcast
5:56 AM 61.0 °F - 54.0 °F 78% 29.96 in 10.0 mi East 5.8 mph - 0.00 in   Overcast
6:56 AM 63.0 °F - 55.0 °F 75% 29.97 in 10.0 mi NE 8.1 mph - N/A   Scattered Clouds
8:56 AM 71.1 °F - 55.0 °F 57% 29.96 in 10.0 mi ENE 4.6 mph - N/A   Overcast
10:56 AM 80.1 °F 80.2 °F 55.9 °F 43% 29.91 in 10.0 mi SSE 13.8 mph 18.4 mph N/A   Scattered Clouds
11:42 AM 82.9 °F 82.1 °F 55.9 °F 39% 30.05 in 10.0 mi SSE 19.6 mph 28.8 mph N/A Thunderstorm Partly Cloudy
11:56 AM 80.1 °F 80.2 °F 55.9 °F 43% 29.88 in 10.0 mi South 16.1 mph 23.0 mph N/A Thunderstorm Mostly Cloudy
12:11 PM 75.0 °F - 57.9 °F 55% 30.04 in 10.0 mi WSW 18.4 mph 24.2 mph N/A Thunderstorm Mostly Cloudy
12:28 PM 73.9 °F - 55.9 °F 53% 30.03 in 10.0 mi West 17.3 mph 23.0 mph N/A Thunderstorm Thunderstorm
12:43 PM 73.9 °F - 53.1 °F 48% 30.03 in 10.0 mi South 8.1 mph - N/A Thunderstorm Mostly Cloudy
12:56 PM 71.1 °F - 57.0 °F 61% 29.89 in 7.0 mi West 13.8 mph 20.7 mph 0.01 in Rain , Thunderstorm Light Thunderstorms and Rain
1:08 PM 66.0 °F - 57.0 °F 73% 30.03 in 2.0 mi NW 15.0 mph 38.0 mph 0.08 in Rain , Thunderstorm Heavy Thunderstorms and Rain
1:11 PM 66.9 °F - 59.0 °F 76% 30.02 in 4.0 mi NNW 11.5 mph - 0.08 in Rain , Thunderstorm Light Thunderstorms and Rain
1:23 PM 71.1 °F - 60.1 °F 68% 30.02 in 9.0 mi NW 8.1 mph - 0.08 in Thunderstorm Mostly Cloudy
1:46 PM 72.0 °F - 63.0 °F 73% 30.02 in 10.0 mi ESE 5.8 mph - 0.12 in Thunderstorm Thunderstorm
1:56 PM 72.0 °F - 62.1 °F 71% 29.88 in 10.0 mi North - - 0.12 in Thunderstorm Thunderstorm
2:04 PM 73.9 °F - 57.9 °F 57% 30.02 in 10.0 mi North - - N/A Thunderstorm Partly Cloudy
2:14 PM 79.0 °F - 59.0 °F 50% 30.01 in 10.0 mi Variable 5.8 mph - N/A Thunderstorm Thunderstorm
2:56 PM 73.9 °F - 57.0 °F 55% 29.87 in 8.0 mi Variable 4.6 mph - 0.00 in Rain , Thunderstorm Light Rain
3:04 PM 73.0 °F - 57.9 °F 59% 30.02 in 10.0 mi West 4.6 mph - 0.00 in Rain , Thunderstorm Light Thunderstorms and Rain
3:56 PM 72.0 °F - 62.1 °F 71% 29.87 in 10.0 mi NNE 13.8 mph - 0.05 in Thunderstorm Thunderstorm
5:18 PM 64.9 °F - 57.9 °F 78% 30.00 in 10.0 mi ENE 10.4 mph - 0.00 in Rain , Thunderstorm Light Rain
6:10 PM 66.0 °F - 60.1 °F 81% 30.01 in 10.0 mi ESE 11.5 mph - N/A   Overcast
6:34 PM 66.9 °F - 59.0 °F 76% 30.01 in 10.0 mi ENE 11.5 mph - N/A Thunderstorm Partly Cloudy
9:56 PM 63.0 °F - 57.0 °F 81% 29.89 in 10.0 mi ENE 4.6 mph - 0.00 in   Mostly Cloudy
10:56 PM 63.0 °F - 55.9 °F 78% 29.89 in 10.0 mi Calm Calm - N/A   Mostly Cloudy
11:56 PM 61.0 °F - 57.0 °F 87% 29.90 in 10.0 mi WNW 4.6 mph - N/A   Mostly Cloudy